Weather History for Port Angeles, WA

Change the Weather History Date:

Monday, December 2, 2013

  Actual Average Record
Temperature  
Mean Temperature 38 °F -  
Max Temperature 44 °F 47 °F 58 °F (1991)
Min Temperature 32 °F 37 °F 23 °F (1985)
Degree Days  
Heating Degree Days 27    
Moisture  
Dew Point 30 °F    
Average Humidity 73    
Maximum Humidity 89    
Minimum Humidity 57    
Precipitation  
Precipitation 0.03 in - - ()
Sea Level Pressure  
Sea Level Pressure 29.93 in    
Wind  
Wind Speed 11 mph (West)    
Max Wind Speed 16 mph    
Max Gust Speed 28 mph    
Visibility 10 miles    
Events Rain    
Averages and records for this station are not official NWS values.
T = Trace of Precipitation, MM = Missing Value Source: NWS Daily Summary

Daily Weather History Graph

Daily Weather History Graph

Search for Another Location

Airport:

Trip Planner

Search our weather history database for the weather conditions in past years. The results will help you decide how hot, cold, wet, or windy it might be!

Date:

Astronomy

Dec. 02, 2013 Rise Set
Actual Time 7:44 AM PST 4:22 PM PST
Civil Twilight 7:09 AM PST 4:57 PM PST
Nautical Twilight 6:30 AM PST 5:36 PM PST
Astronomical Twilight 5:52 AM PST 6:14 PM PST
Moon 7:13 AM PST (12/2) 4:32 PM PST (12/2)
Length of Visible Light 9h 48m
Length of Day
8h 37m
Waning Crescent, 0% of the Moon is Illuminated
Dec 2
Waning Crescent
Dec 2
New
Dec 9
First Quarter
Dec 17
Full
Dec 25
Last Quarter

Hourly Weather History & Observations

Time (PST) Temp. Windchill Dew Point Humidity Pressure Visibility Wind Dir Wind Speed Gust Speed Precip Events Conditions
12:53 AM 37.9 °F 30.5 °F 35.1 °F 89% 29.84 in 10.0 mi WNW 11.5 mph - 0.01 in Rain Light Rain
1:53 AM 37.0 °F 28.1 °F 34.0 °F 89% 29.86 in 7.0 mi WNW 15.0 mph 27.6 mph 0.02 in Rain Light Rain
2:01 AM 37.0 °F 28.1 °F 33.1 °F 86% 29.84 in 7.0 mi West 15.0 mph 25.3 mph 0.00 in Rain Light Rain
2:16 AM 37.0 °F 29.8 °F 32.0 °F 82% 29.84 in 10.0 mi West 10.4 mph - 0.00 in   Scattered Clouds
2:53 AM 37.9 °F 30.0 °F 32.0 °F 79% 29.84 in 10.0 mi West 12.7 mph 23.0 mph 0.00 in   Mostly Cloudy
3:53 AM 37.9 °F 31.5 °F 32.0 °F 79% 29.83 in 10.0 mi West 9.2 mph - N/A   Overcast
4:53 AM 37.0 °F 29.3 °F 32.0 °F 82% 29.83 in 10.0 mi WSW 11.5 mph - 0.00 in   Mostly Cloudy
5:53 AM 37.9 °F 28.9 °F 28.9 °F 70% 29.83 in 10.0 mi WSW 16.1 mph 21.9 mph N/A   Partly Cloudy
6:53 AM 37.0 °F 29.3 °F 28.0 °F 70% 29.84 in 10.0 mi West 11.5 mph - N/A   Clear
7:53 AM 37.0 °F 28.5 °F 28.9 °F 73% 29.86 in 10.0 mi West 13.8 mph 20.7 mph N/A   Scattered Clouds
8:53 AM 37.9 °F 30.5 °F 30.0 °F 73% 29.88 in 10.0 mi WSW 11.5 mph - N/A   Partly Cloudy
9:53 AM 41.0 °F 34.7 °F 32.0 °F 70% 29.89 in 10.0 mi West 10.4 mph - N/A   Mostly Cloudy
10:53 AM 42.1 °F 34.9 °F 32.0 °F 67% 29.90 in 10.0 mi WNW 13.8 mph 20.7 mph 0.00 in   Mostly Cloudy
11:53 AM 44.1 °F 38.1 °F 30.9 °F 60% 29.89 in 10.0 mi West 11.5 mph 19.6 mph N/A   Scattered Clouds
12:53 PM 43.0 °F 37.2 °F 30.0 °F 60% 29.91 in 10.0 mi WNW 10.4 mph 19.6 mph N/A   Partly Cloudy
1:53 PM 42.1 °F 36.6 °F 30.0 °F 62% 29.92 in 10.0 mi WNW 9.2 mph - N/A   Scattered Clouds
2:53 PM 43.0 °F 37.2 °F 32.0 °F 65% 29.94 in 10.0 mi WNW 10.4 mph - N/A   Mostly Cloudy
3:53 PM 41.0 °F 37.1 °F 32.0 °F 70% 29.96 in 10.0 mi NW 5.8 mph - N/A   Clear
4:53 PM 36.0 °F 31.1 °F 30.9 °F 82% 29.99 in 10.0 mi SW 5.8 mph - N/A   Partly Cloudy
5:53 PM 34.0 °F 28.0 °F 28.9 °F 82% 30.00 in 10.0 mi WSW 6.9 mph - N/A   Clear
6:53 PM 32.0 °F - 28.9 °F 88% 30.02 in 10.0 mi Calm Calm - N/A   Mostly Cloudy
7:53 PM 36.0 °F 32.1 °F 30.9 °F 82% 30.04 in 10.0 mi SSW 4.6 mph - N/A   Overcast
8:53 PM 39.0 °F 34.0 °F 28.9 °F 67% 30.07 in 10.0 mi East 6.9 mph - N/A   Overcast
9:53 PM 37.0 °F 31.6 °F 27.0 °F 67% 30.10 in 10.0 mi SSE 6.9 mph - 0.00 in   Overcast
10:53 PM 36.0 °F 28.0 °F 23.0 °F 59% 30.12 in 10.0 mi SE 11.5 mph - N/A   Overcast
11:53 PM 36.0 °F 31.1 °F 21.9 °F 57% 30.15 in 10.0 mi East 5.8 mph - N/A   Overcast